Location: Dead Woman Crossing
(43.5369°N, 106.3228°W)
Time: 08:27:46
(UTC+00:00)

NANOSAT C BR1 - Pass Details

Date: 04 July 2022
Orbit: 584 x 599 km, 98.0° (Epoch: 17 August)

Event Time Altitude Azimuth Distance (km) Brightness Sun altitude
Rises 09:39:55 0° 7° (N) 2,853 ? -15.2°
Reaches altitude 10° 09:42:08 10° 2° (N) 1,948 ? -15.0°
Maximum altitude 09:46:13 50° 288° (WNW) 772 ? -14.5°
Enters shadow 09:48:30 24° 223° (SW) 1,263 ? -14.3°
